Powrót do katalogu

CZ-4C R/B

AktywnySSO
NORAD 49010·ROCKET BODY·🇨🇳 China

Wystrzelony Jul 4, 2021 z Jiuquan Satellite Launch Center

Loading…

Następne Przeloty (najbliższe 24 godziny)

TLE

ŚwieżeSource: Space-Track

Epoka: Sep 14, 2026, 04:56 UTC

1 49010U 21062C   26257.20608315  .00000185  00000-0  47534-4 0  9993
2 49010  98.5259 348.3548 0131943  10.0517 350.3272 14.57286166276096

Śledź CZ-4C R/B w czasie rzeczywistym z AllMySat

Download on the App Store